Weather in Dyachi

Russia / Tambov Oblast     53°43′06″N   41°28′35″E
temp.,
°C
wind,
m/s
gust,
m/s
humid.,
%
clouds,
%
prec.,
mm/h
press.,
hPa
HPBL,
m
4 march, thu
thu400:00−2w6139099 0.0 1011596
03:00−3wsw61393100 0.1 1008494
06:00−2wsw71393100 0.1 1006644
09:000wsw91690100 0.4 1004715
12:000wsw8168797 0.0 1003816
15:000wsw8138699 0.0 1002907
18:00−1wsw61293100 0.1 1001628
21:00−2wsw51097100 0.4 1001431
5 march, fri
fri500:00−2w4897100 0.7 1000353
03:00−4n3697100 1.4 1001272
06:00−4nnw3796100 0.5 1003243
09:00−6nnw3696100 0.5 1006241
12:00−4nw358840 0.0 1008552
15:00−3w358657 0.0 1010658
18:00−7w349222 0.0 101176
21:00−8w349338 0.0 101464
6 march, sat
sat600:00−10wnw339159 0.0 101529
03:00−11wnw239169 0.0 101621
06:00−13n129138 0.0 101621
09:00−11ene119328 0.0 101645
12:00−7se118650 0.0 1016227
15:00−5ssw118462 0.0 1015219
18:00−8w128976 0.0 101521
21:00−9wsw229583 0.1 101621
7 march, sun
sun700:00−9w359695 0.2 1016122
03:00−12wnw349579 0.2 101659
06:00−14wsw479315 0.0 1014129
09:00−10sw7158737 0.0 1012447
12:00−5sw91680100 0.0 1008876
15:00−4sw111890100 0.2 10031277
18:00−4sw101893100 1.6 10001130
21:00−5wnw51284100 2.9 1001696
8 march, mon
mon800:00−11wsw478467 0.0 100297
03:00−12sw5117633 0.0 1002166
06:00−11ssw4109118 0.0 1000189
09:00−6sw7138956 0.0 998640
12:00−6wnw101477100 0.6 9981279
15:00−7w10168099 0.8 10021605
18:00−9wnw8158499 0.1 1006995
21:00−11w6138781 0.1 1010359